Погода в Исафьордюре

Исландия     66°03′36″N   23°10′51″W
темп.,
°C
ветер,
м/с
пор.,
м/с
влажн.,
%
обл.,
%
осадки,
мм/ч
давл.,
гПа
погр.,
м
18 мая, ср
ср1800:00+8в2264100 0.0 100417
03:00+7юв2271100 0.0 100312
06:00+7всв1174100 0.0 100311
09:00+11с2259100 0.0 1001206
12:00+9ссв4474100 0.0 1000254
15:00+7ссв4484100 0.2 999271
18:00+4ссв4597100 1.3 998230
21:00+3ссв5597100 0.4 998238
19 мая, чт
чт1900:00+2ссв4497100 1.3 998214
03:00+2ссв3398100 1.9 998203
06:00+1св2299100 5.2 99996
09:00+2в1198100 3.3 999279
12:00+3в1197100 3.5 999176
15:00+6всв228257 0.0 998328
18:00+8всв2267100 0.0 997355
21:00+6ссв228312 0.0 997156
20 мая, пт
пт2000:00+5юв11857 0.0 99723
03:00+4в11839 0.0 99711
06:00+5всв118277 0.0 99819
09:00+6св227976 0.0 999194
12:00+7всв2280100 0.0 1000415
15:00+5ссв4387100 0.1 1001388
18:00+4ссв4495100 0.5 1002260
21:00+3ссв3496100 0.0 1003220
21 мая, сб
сб2100:00+3ссв3498100 0.0 1004183
03:00+3ссв3498100 0.0 1004175
06:00+3ссв3498100 0.0 1005171
09:00+3ссв3497100 0.0 1005214
12:00+4ссв349598 0.0 1006252
15:00+5ссв349297 0.0 1007319
18:00+5ссв449198 0.0 1008299
21:00+4ссв339583 0.0 1009211
22 мая, вс
вс2200:00+3св239793 0.0 1010155
03:00+3св239677 0.0 1009137
06:00+3св229555 0.0 1009134
09:00+5ссв338798 0.0 1008231
12:00+6ссв3389100 0.0 1008305
15:00+6ссв4488100 0.0 1008359
18:00+5ссв4493100 0.0 1008294
21:00+4св339693 0.0 1007205